Probability
0 0 0 0 0 0 0 0 0 0 0 0 0 0 0 6 6 10 10 10 13 16 10 16 19 26 29 42 71 84 77 81 81 74 55 55 42 45 48 55 61 58 58 48
0 0 0 0 0 0 0 0 0 0 0 0 0 3 0 3 10 13 16 13 13 23 19 23 23 29 29 61 84 84 81 81 74 74 68 68 55 55 55 55 68 61 58 55
0 0 0 0 0 0 0 0 0 0 0 0 0 3 3 16 10 10 13 13 16 19 26 32 35 32 35 61 74 71 87 84 74 71 61 58 61 58 61 61 58 61 61 58
0 0 0 0 0 0 0 0 0 0 0 0 0 0 3 10 16 13 16 16 10 19 26 32 32 32 42 68 81 87 94 90 84 84 58 48 58 48 55 58 55 58 58 55
0 0 0 0 0 0 0 0 0 0 0 0 0 0 0 6 13 26 16 19 19 19 29 29 29 32 45 48 71 81 94 87 84 81 71 71 58 52 58 55 71 65 55 52
0 0 0 0 0 0 0 0 0 0 0 0 0 0 0 6 16 16 26 19 26 32 29 26 29 39 48 55 65 68 90 87 84 77 74 74 71 65 61 65 65 65 61 58
0 0 0 0 0 0 0 0 0 0 0 0 0 0 0 6 6 13 16 29 29 32 35 42 45 48 55 65 61 71 81 81 77 77 77 77 74 74 74 68 65 61 52 58
0 0 0 0 0 0 0 0 0 0 0 0 0 0 6 16 10 13 19 26 29 32 42 42 52 61 61 58 68 77 87 81 81 81 77 77 74 74 68 74 58 58 55 55
0 0 0 0 0 0 0 0 0 0 0 0 0 0 13 16 13 23 26 39 39 42 42 45 45 55 61 55 77 74 81 84 84 84 81 77 74 71 71 74 68 55 65 55
0 0 0 0 0 0 0 0 0 0 0 0 0 0 6 16 23 32 39 42 42 45 42 45 52 48 58 55 68 77 81 87 84 81 77 71 71 71 74 65 61 65 61 58
0 0 0 3 3 0 3 0 0 0 0 0 0 0 6 16 32 35 39 45 42 45 39 42 48 48 55 55 61 81 84 87 81 77 77 71 71 68 65 65 65 68 68 68
0 0 0 0 3 3 3 0 0 0 0 0 0 6 10 13 29 39 32 42 42 45 39 39 42 55 61 65 68 74 84 81 74 77 77 81 74 61 65 61 61 65 68 55
0 0 0 0 0 3 3 3 0 0 0 0 0 3 13 16 32 42 39 42 55 52 55 55 52 55 65 68 71 68 77 77 68 74 74 71 68 65 61 61 61 65 58 58
0 0 0 0 0 0 3 3 0 0 0 0 0 3 16 29 35 39 45 45 45 52 61 58 55 58 65 77 81 74 71 71 68 71 68 71 71 68 61 61 61 55 55 55
0 0 0 0 0 0 0 0 3 0 0 0 3 3 16 32 39 39 45 48 48 52 58 61 65 65 71 77 81 77 68 68 68 74 74 77 74 65 58 61 58 58 52 52
0 0 0 0 0 0 3 3 3 6 3 3 3 6 23 35 39 42 45 45 48 55 61 65 65 68 71 84 84 84 77 74 71 71 71 74 71 65 58 58 58 55 55 55
0 0 0 0 0 0 0 6 6 6 6 3 6 13 26 32 39 45 52 48 45 52 55 61 61 68 71 74 68 71 65 68 71 68 68 61 58 55 61 58 55 52 52 52
0 0 0 0 0 0 6 3 3 6 6 10 13 19 19 29 45 48 58 55 52 55 55 68 65 61 65 71 61 68 68 65 68 65 68 65 65 61 61 58 52 55 55 55
0 0 0 0 0 0 3 3 6 6 6 13 10 19 26 29 35 48 45 52 52 52 55 58 65 61 65 61 65 68 61 61 61 61 58 58 61 58 55 55 52 52 55 48
0 0 0 0 0 0 3 3 10 10 6 13 19 23 29 32 32 39 52 48 48 55 58 58 58 58 61 58 58 65 58 55 58 58 58 58 61 61 55 52 55 55 48 48
0 0 0 0 0 3 6 16 13 6 13 23 26 29 35 39 32 42 42 45 48 48 48 48 48 58 61 52 58 61 65 58 52 61 58 58 55 58 58 58 55 48 48 45
0 0 0 0 0 3 10 16 16 23 23 23 23 26 29 35 42 39 42 45 35 45 42 39 52 48 55 55 61 58 58 58 48 55 48 55 48 52 52 55 55 45 48 48
0 3 0 3 6 23 19 19 19 19 23 23 29 32 32 29 39 39 39 42 35 35 35 42 48 45 42 42 52 52 52 55 45 42 42 45 42 48 52 48 52 52 48 48
10 10 13 13 16 16 19 19 19 19 19 19 23 29 29 29 29 35 39 35 29 29 32 32 39 39 39 42 42 48 52 48 42 45 42 42 42 42 45 45 42 45 42 42
13 16 13 16 19 23 16 16 16 16 19 23 26 29 26 23 23 32 32 29 29 29 29 29 35 39 35 39 39 45 39 39 42 42 39 35 35 35 39 42 35 32 35 42
10 19 16 13 23 19 19 23 26 23 23 23 23 23 19 23 26 26 29 32 26 26 29 26 26 32 32 29 32 39 39 35 29 32 35 29 32 32 35 32 26 16 16 6
Height
5911 5915 5917 5919 5921 5923 5924 5925 5925 5925 5924 5923 5923 5922 5920 5919 5917 5916 5915 5913 5912 5911 5910 5908 5906 5905 5904 5902 5901 5901 5900 5899 5898 5898 5897 5897 5897 5897 5897 5896 5896 5896 5896 5896
5910 5912 5915 5916 5918 5920 5922 5924 5925 5925 5924 5924 5923 5923 5921 5920 5919 5918 5916 5915 5914 5913 5912 5910 5909 5907 5906 5904 5903 5902 5901 5900 5900 5899 5899 5898 5898 5898 5898 5897 5897 5897 5897 5896
5906 5910 5911 5913 5915 5918 5920 5922 5923 5924 5924 5924 5924 5924 5923 5921 5920 5919 5917 5916 5915 5914 5913 5912 5910 5909 5907 5906 5905 5903 5903 5902 5901 5900 5900 5899 5899 5899 5899 5898 5898 5898 5897 5897
5902 5905 5907 5910 5913 5915 5918 5919 5920 5921 5923 5924 5924 5925 5923 5922 5920 5919 5918 5917 5916 5915 5914 5913 5912 5910 5909 5907 5906 5905 5904 5903 5902 5901 5901 5900 5900 5899 5899 5899 5898 5898 5898 5897
5897 5900 5903 5907 5910 5912 5915 5916 5918 5919 5921 5922 5923 5924 5924 5921 5920 5919 5918 5917 5917 5916 5915 5914 5913 5911 5910 5909 5907 5906 5905 5904 5903 5902 5902 5901 5900 5900 5900 5899 5899 5898 5898 5898
5893 5895 5899 5902 5906 5908 5911 5913 5915 5917 5919 5921 5921 5922 5923 5921 5919 5918 5917 5917 5916 5916 5915 5914 5913 5912 5911 5909 5908 5907 5906 5905 5904 5903 5902 5902 5901 5901 5900 5900 5899 5899 5899 5898
5887 5891 5894 5898 5901 5904 5907 5911 5914 5916 5918 5919 5918 5919 5921 5919 5918 5917 5917 5916 5916 5915 5914 5914 5913 5912 5911 5910 5909 5908 5907 5906 5905 5904 5903 5903 5902 5901 5901 5900 5900 5899 5899 5898
5883 5887 5889 5893 5897 5900 5903 5908 5912 5915 5916 5917 5915 5916 5918 5916 5916 5915 5915 5915 5915 5914 5914 5913 5912 5912 5911 5910 5909 5908 5907 5906 5905 5904 5904 5903 5902 5901 5901 5900 5900 5899 5899 5898
5879 5883 5885 5888 5892 5896 5898 5902 5907 5910 5911 5913 5913 5914 5914 5914 5914 5913 5913 5913 5913 5913 5912 5912 5911 5911 5910 5910 5909 5908 5907 5906 5906 5905 5904 5903 5902 5902 5901 5900 5900 5899 5899 5898
5873 5878 5879 5883 5887 5890 5894 5897 5901 5905 5907 5909 5910 5911 5912 5911 5911 5912 5912 5911 5911 5911 5911 5910 5910 5910 5909 5909 5908 5907 5907 5906 5905 5904 5903 5903 5902 5902 5901 5900 5899 5899 5897 5897
5868 5872 5875 5877 5881 5884 5888 5892 5895 5899 5902 5905 5908 5911 5908 5908 5908 5909 5909 5909 5909 5909 5909 5909 5908 5908 5908 5907 5907 5906 5905 5905 5904 5903 5903 5902 5901 5901 5900 5899 5898 5898 5896 5896
5861 5866 5869 5872 5875 5879 5882 5886 5890 5894 5896 5898 5902 5908 5903 5904 5904 5905 5905 5906 5906 5906 5906 5906 5906 5906 5905 5905 5904 5904 5904 5903 5903 5902 5901 5901 5900 5899 5899 5898 5897 5896 5896 5895
5855 5859 5863 5866 5871 5873 5876 5880 5884 5888 5892 5893 5897 5902 5898 5899 5900 5901 5902 5902 5903 5903 5903 5903 5903 5903 5903 5903 5902 5902 5901 5901 5901 5900 5899 5899 5898 5897 5897 5896 5896 5895 5894 5893
5848 5852 5857 5862 5865 5867 5870 5874 5877 5882 5885 5888 5891 5894 5894 5895 5896 5897 5898 5898 5899 5899 5900 5900 5900 5900 5900 5899 5899 5899 5899 5898 5898 5898 5897 5896 5895 5895 5895 5894 5893 5893 5892 5891
5840 5845 5849 5854 5858 5861 5864 5867 5871 5874 5878 5882 5885 5886 5888 5889 5891 5892 5893 5894 5895 5895 5895 5896 5896 5896 5896 5896 5896 5895 5895 5895 5895 5895 5894 5894 5893 5892 5892 5892 5891 5891 5890 5889
5832 5837 5842 5846 5850 5853 5856 5860 5864 5867 5871 5874 5877 5880 5881 5883 5885 5887 5888 5889 5890 5891 5891 5892 5892 5892 5891 5892 5892 5892 5892 5892 5891 5891 5891 5890 5890 5889 5889 5889 5888 5888 5887 5886
5824 5829 5834 5838 5842 5845 5848 5853 5856 5860 5863 5867 5870 5873 5874 5876 5878 5881 5882 5884 5885 5885 5886 5887 5887 5887 5887 5887 5888 5888 5888 5887 5887 5887 5887 5887 5887 5886 5886 5885 5884 5884 5883 5883
5817 5821 5826 5831 5833 5836 5843 5845 5849 5852 5855 5859 5862 5865 5867 5869 5871 5873 5875 5877 5878 5880 5880 5881 5881 5882 5882 5882 5882 5883 5882 5882 5882 5881 5882 5882 5882 5882 5882 5881 5880 5880 5879 5878
5808 5813 5818 5822 5824 5829 5833 5837 5841 5844 5847 5850 5853 5856 5859 5862 5864 5866 5868 5870 5871 5873 5874 5875 5875 5876 5876 5877 5877 5877 5877 5877 5877 5876 5877 5877 5877 5877 5877 5876 5876 5875 5873 5872
5799 5804 5810 5813 5817 5821 5826 5829 5832 5836 5838 5842 5845 5848 5851 5854 5856 5859 5860 5862 5863 5865 5866 5867 5868 5869 5870 5871 5871 5871 5871 5871 5871 5871 5872 5872 5872 5872 5871 5871 5870 5869 5868 5867
5790 5795 5800 5804 5808 5812 5817 5820 5824 5828 5831 5834 5836 5839 5843 5845 5848 5851 5852 5853 5855 5857 5858 5860 5861 5862 5863 5864 5864 5864 5865 5865 5865 5865 5865 5865 5865 5865 5865 5865 5864 5863 5862 5861
5781 5786 5791 5795 5800 5805 5808 5811 5815 5818 5822 5825 5828 5830 5833 5836 5839 5841 5843 5845 5847 5849 5850 5852 5854 5855 5856 5857 5857 5857 5858 5859 5859 5858 5858 5858 5858 5858 5858 5857 5857 5856 5855 5855
5772 5778 5782 5787 5792 5795 5799 5803 5806 5810 5813 5816 5819 5821 5824 5827 5830 5833 5835 5837 5839 5840 5842 5844 5846 5847 5848 5849 5850 5850 5851 5851 5851 5851 5851 5851 5851 5851 5850 5850 5849 5849 5848 5847
5763 5768 5773 5777 5782 5786 5790 5794 5797 5800 5804 5807 5810 5813 5816 5819 5822 5824 5826 5828 5830 5832 5834 5836 5837 5838 5839 5841 5841 5842 5843 5844 5843 5843 5843 5843 5843 5843 5843 5842 5841 5841 5840 5839
5753 5758 5763 5767 5772 5776 5781 5784 5788 5791 5794 5797 5801 5804 5807 5810 5813 5815 5817 5819 5821 5823 5825 5827 5828 5830 5831 5832 5833 5834 5835 5835 5835 5835 5835 5835 5835 5834 5834 5833 5833 5832 5831 5831
5744 5749 5754 5758 5762 5767 5771 5774 5778 5781 5784 5788 5791 5795 5798 5801 5803 5806 5808 5810 5813 5814 5816 5818 5819 5821 5822 5823 5824 5825 5826 5826 5826 5826 5826 5826 5826 5826 5825 5825 5824 5823 5823 5822
Wind_Speed
16 15 14 13 11 9 7 6 4 2 2 4 6 7 8 9 9 10 10 10 11 11 11 10 9 9 8 7 6 6 7 7 6 6 6 6 6 6 5 5 5 6 6 5
18 17 17 15 14 12 9 7 6 5 3 2 3 5 7 8 7 8 8 9 10 10 10 9 9 9 8 7 6 5 5 5 5 5 5 5 5 5 5 5 4 4 4 4
20 19 19 18 16 14 12 9 8 7 5 4 3 4 6 6 6 7 7 8 8 9 9 9 8 8 8 7 6 5 5 5 4 4 5 5 5 4 3 3 3 3 2 2
23 22 21 19 18 15 13 12 10 9 7 6 4 3 5 4 5 6 6 6 7 7 8 8 8 7 7 7 6 5 4 4 4 4 4 4 4 4 3 3 3 3 2 2
24 23 22 21 19 18 16 15 13 11 10 8 7 4 5 4 5 5 5 6 6 6 7 7 7 7 7 6 6 5 4 3 3 3 3 3 2 3 3 3 2 2 2 2
26 24 23 22 21 20 18 17 15 13 12 10 9 6 5 6 5 5 5 5 5 5 6 6 6 6 6 6 5 5 4 4 3 3 2 3 2 2 2 2 2 1 1 1
28 27 26 24 23 23 21 18 15 14 13 13 12 9 7 7 6 4 4 5 6 6 6 5 5 5 5 4 4 5 4 4 3 3 3 3 3 2 2 2 2 2 1 1
29 28 27 26 24 24 23 20 18 15 14 13 13 10 8 7 6 6 5 6 6 6 6 6 5 5 5 4 4 4 4 3 3 3 3 3 2 2 2 2 2 1 2 2
28 27 28 26 25 25 24 23 20 18 16 14 14 12 10 9 8 7 7 6 6 6 6 7 6 5 5 4 4 4 4 3 4 3 3 3 2 2 2 2 2 3 3 3
29 29 29 28 27 27 26 24 22 19 18 16 15 13 11 10 9 9 9 7 7 7 7 7 7 6 6 5 5 5 4 4 4 3 3 3 3 3 3 3 3 4 4 3
29 28 29 29 29 28 27 25 24 22 20 17 15 14 13 11 11 10 10 9 9 9 8 8 7 7 7 7 7 6 6 5 4 4 4 4 4 5 5 5 5 5 4 2
30 29 29 29 29 29 28 27 26 25 23 21 18 16 15 13 12 12 11 11 11 10 10 10 10 9 9 9 8 8 7 7 6 6 6 6 6 6 7 6 6 6 5 5
31 32 30 29 29 30 30 28 27 25 23 23 20 17 18 15 14 13 13 12 12 12 12 12 12 11 11 10 10 9 8 8 8 8 7 8 8 8 9 8 8 8 8 7
32 33 32 30 29 30 30 30 28 26 25 24 22 20 20 18 16 15 14 14 13 13 13 14 14 13 12 12 12 12 10 10 10 10 10 10 11 11 11 10 10 10 9 9
33 34 33 32 31 30 30 30 30 29 28 25 23 22 22 21 18 17 16 16 15 15 15 16 16 15 14 14 13 13 13 13 13 12 12 12 12 13 13 12 11 11 12 12
34 34 33 34 33 32 32 31 30 30 30 29 26 25 24 23 21 20 19 18 17 17 17 17 18 18 16 15 15 14 15 15 15 15 15 15 14 14 14 14 14 14 14 14
35 35 34 34 33 34 35 33 32 32 31 30 29 27 26 25 24 23 22 21 20 20 20 19 19 19 19 18 18 18 17 17 18 17 17 17 17 17 16 16 16 16 17 17
35 35 34 33 35 36 35 33 32 32 32 32 31 29 28 27 26 26 25 24 24 23 22 22 22 22 22 21 20 20 20 19 19 20 19 20 19 18 18 18 18 18 19 19
36 35 34 34 34 34 35 33 32 32 33 33 33 32 30 29 29 28 27 27 27 26 25 24 24 24 24 23 23 22 22 21 21 21 21 21 20 20 20 20 20 20 20 20
37 36 36 35 34 34 35 33 32 33 34 33 33 32 31 30 31 30 29 28 28 27 27 27 26 26 25 25 25 25 24 23 23 23 23 22 22 22 22 22 22 22 21 21
38 37 36 36 35 35 35 33 32 34 34 32 32 32 31 31 31 31 30 30 29 29 28 27 27 26 25 26 26 26 25 24 24 24 24 24 24 24 24 24 23 23 23 23
38 38 37 36 35 36 36 34 34 34 33 32 31 31 31 31 30 30 30 29 29 28 27 27 28 29 28 28 27 26 25 26 26 26 26 26 26 26 26 26 25 25 24 25
39 39 38 38 37 36 35 34 34 33 33 32 32 31 31 31 31 31 30 30 30 29 28 28 28 29 29 30 29 27 27 27 27 27 27 27 27 28 28 28 27 26 26 26
38 39 39 39 38 37 35 34 34 34 34 33 32 31 31 31 31 31 31 30 30 30 29 29 29 29 29 29 29 28 28 29 29 28 29 29 28 28 28 28 28 28 27 27
38 38 39 39 39 38 36 35 34 34 34 34 33 33 32 32 31 31 31 30 30 30 30 29 29 29 29 29 30 29 29 29 29 29 29 29 29 28 28 28 28 28 28 29
37 37 37 38 38 37 36 35 35 34 34 34 34 33 33 32 32 31 31 31 30 31 31 30 30 30 29 29 29 29 29 30 30 29 29 29 29 29 29 29 29 29 29 29
Wind_Direction
215 213 214 212 205 206 212 214 233 268 343 23 30 27 25 30 35 36 36 36 36 38 43 46 49 53 58 64 68 73 78 82 86 88 88 85 85 87 88 89 96 106 108 111
217 216 214 215 215 216 218 227 241 251 276 334 13 13 16 22 30 32 32 32 31 34 38 40 45 49 51 54 57 67 76 81 84 85 90 84 86 90 86 85 94 104 111 113
219 219 217 218 219 221 225 231 236 243 256 280 311 353 0 16 20 24 25 25 27 29 29 30 33 38 40 43 50 60 73 79 77 75 80 82 86 84 86 89 91 102 117 125
221 221 221 221 223 224 231 232 235 244 252 269 275 306 329 352 1 4 6 12 17 20 22 24 24 27 31 32 39 48 61 68 74 73 76 72 79 72 86 99 94 96 103 129
224 224 223 222 224 226 230 234 236 242 249 258 268 276 296 312 336 339 347 357 0 6 10 15 18 18 23 26 30 35 41 48 58 68 76 69 72 67 80 92 94 97 105 125
225 225 224 224 225 227 230 233 238 242 248 254 258 263 279 291 303 318 332 343 345 350 355 1 7 11 13 18 22 24 27 32 36 43 53 51 55 55 72 70 64 88 116 132
225 226 225 225 226 227 229 231 239 242 245 250 256 255 260 273 282 284 302 316 327 332 336 341 349 359 3 9 16 16 16 24 30 33 35 33 39 51 50 53 50 30 19 9
225 227 228 226 226 228 230 230 230 234 243 251 257 253 255 262 273 271 283 298 310 321 323 317 324 330 343 350 349 355 359 3 8 10 13 15 22 26 25 15 5 344 345 332
224 227 230 228 227 228 231 230 230 237 244 247 252 255 259 259 263 267 273 279 288 300 307 305 309 311 316 324 323 327 335 344 352 359 1 2 2 349 338 337 332 314 313 310
223 225 229 228 228 229 230 232 232 231 237 243 253 257 258 258 258 260 265 270 274 280 289 292 296 297 300 305 300 311 324 324 331 343 343 332 323 316 316 318 323 327 316 299
221 223 228 229 227 230 231 232 233 233 235 238 248 253 255 257 260 258 257 261 267 271 276 277 283 285 290 294 289 292 300 308 307 313 317 313 306 303 305 310 313 320 320 301
220 221 227 231 230 230 233 233 234 235 239 241 242 252 257 256 258 258 257 260 263 265 270 273 274 277 280 284 283 279 287 292 294 293 299 302 300 298 299 301 305 309 309 301
222 222 224 229 231 231 232 233 235 236 241 245 244 250 255 254 256 257 257 258 261 262 267 268 269 273 276 278 280 277 281 282 284 284 285 291 293 291 292 292 298 298 299 296
224 226 225 227 232 234 234 234 235 234 237 243 245 243 250 251 251 254 255 256 258 261 263 263 264 271 273 275 275 269 273 278 280 282 287 291 292 292 291 287 290 291 292 293
226 227 228 229 231 235 236 236 236 236 237 241 247 248 246 247 246 248 251 254 257 258 259 259 258 264 268 269 273 270 271 276 278 280 284 291 291 288 287 288 289 288 292 295
228 230 230 231 233 235 236 236 237 238 239 242 245 247 248 245 242 245 249 251 253 255 255 255 256 261 264 264 267 269 269 272 275 277 279 282 287 288 288 288 287 285 287 290
229 230 231 232 233 235 236 236 237 239 241 241 243 245 246 245 243 245 247 249 250 252 253 254 255 259 260 261 265 269 270 270 272 274 276 279 283 285 286 289 290 285 286 287
230 230 231 234 235 235 237 237 239 240 242 243 244 245 245 246 246 246 248 249 249 250 252 254 255 258 257 257 261 265 267 268 272 272 273 277 279 281 284 286 288 288 289 289
228 229 230 232 236 238 238 237 238 241 243 244 245 246 246 247 248 248 249 250 249 249 251 253 254 257 257 257 259 262 265 266 268 271 274 275 276 278 280 283 285 285 287 287
227 228 230 232 234 236 240 240 240 243 245 244 246 246 245 246 247 248 249 250 249 249 250 251 254 255 255 257 259 259 261 265 266 267 270 272 273 276 278 279 282 283 285 285
227 228 230 232 235 237 239 240 241 243 245 245 246 246 246 246 247 248 250 250 248 248 250 252 255 255 257 258 259 259 262 266 267 268 270 271 273 276 277 277 280 281 282 284
229 230 231 232 235 238 239 240 241 244 246 247 247 246 246 245 246 248 250 250 248 249 251 253 255 254 256 256 257 259 262 266 268 269 270 271 273 275 275 276 277 279 280 282
230 230 232 234 236 239 240 242 244 245 247 247 246 245 244 244 245 247 249 248 248 248 250 252 255 254 253 254 256 260 261 265 266 268 270 272 273 274 275 276 276 277 278 279
231 232 234 235 237 240 242 244 244 245 246 246 245 245 244 244 245 246 248 249 248 249 250 252 254 253 253 254 257 259 262 265 266 267 269 271 272 274 274 274 275 277 277 278
231 232 234 237 239 241 242 243 243 244 244 245 244 243 244 244 245 245 247 247 247 249 250 250 252 253 253 254 256 259 262 265 268 269 269 269 270 272 274 274 274 274 275 277
232 233 234 236 237 238 239 240 241 242 242 243 243 243 243 244 244 245 246 246 247 249 249 250 252 252 253 255 256 259 261 263 266 268 269 270 271 272 274 275 274 274 275 277